Regional Weather Roundup
Issued by NWS

Home | Current Version | Previous Version | Text Only | Print | Product List | Glossary Off
Versions: 1 2 3 4 5 6 7 8 9 10 11 12 13 14 15 16 17 18 19 20 21 22 23 24 25 26 27 28 29 30 31 32 33 34 35 36 37 38 39 40 41 42 43 44 45 46 47 48 49 50

000
ASUS43 KDMX 272207
RWRIA

WEATHER ROUNDUP FOR IOWA
NATIONAL WEATHER SERVICE DES MOINES IA
500 PM CDT WED MAY 27 2015

NOTE: "FAIR" INDICATES FEW OR NO CLOUDS BELOW 12,000 FEET WITH NO
SIGNIFICANT WEATHER AND/OR OBSTRUCTIONS TO VISIBILITY.

* - THESE STATIONS ARE NOT NWS STATIONS...THUS NOT UNDER NWS
QUALITY CONTROL.  THEY ALSO DO NOT REPORT WEATHER SUCH
AS PRECIPITATION OR FOG.

IAZ001>003-012>014-020>022-031>034-043>046-272300-
   NORTHWEST IOWA

CITY           SKY/WX    TMP DP  RH WIND       PRES   REMARKS
CARROLL *      SUNNY     82  50  32 SW5       30.04F HX  81
CHEROKEE *     SUNNY     82  50  32 CALM      30.02F HX  81
DENISON *      SUNNY     81  55  41 SW6G14    30.03F HX  80
LE MARS *      SUNNY     82  48  30 SW8       30.02F HX  81
ORANGE CITY *  MOSUNNY   79  46  31 SW6       30.03S
SHELDON *      SUNNY     82  73  74 CALM      30.01S HX  88
SIOUX CITY     MOSUNNY   84  49  29 SW7       30.01F HX  82
SPENCER        SUNNY     84  48  28 SW9       30.02S HX  82
STORM LAKE *   SUNNY     82  46  28 CALM      30.05S HX  81
$$

IAZ055>058-069>071-079>083-090>094-272300-
   SOUTHWEST IOWA

CITY           SKY/WX    TMP DP  RH WIND       PRES   REMARKS
ATLANTIC *     SUNNY     82  50  32 S8        30.05F HX  81
AUDUBON *      MOSUNNY   82  50  32 CALM      30.06F HX  81
CLARINDA *     SUNNY     82  52  34 S9        30.08S HX  81
COUNCIL BLFS * SUNNY     82  52  34 VRB6      30.06S HX  81
CRESTON *      SUNNY     79  55  44 W6        30.07F
HARLAN  *      SUNNY     82  50  32 VRB7G13   30.08F HX  81
LAMONI         SUNNY     83  58  42 W7        30.08S HX  83
RED OAK *      MOSUNNY   82  52  34 SW8G15    30.06F HX  81
SHENANDOAH *   SUNNY     82  50  32 S8        30.06F HX  81
$$

IAZ047>049-059>061-072>074-084-272300-
   CENTRAL IOWA

CITY           SKY/WX    TMP DP  RH WIND       PRES   REMARKS
AMES           SUNNY     80  57  45 S9        30.04F HX  80
ANKENY *       SUNNY     81  57  44 VRB5      30.04F HX  81
CHARITON *     SUNNY     79  57  47 W5        30.07F HX  80
DES MOINES     MOSUNNY   82  55  39 SW10      30.05F HX  81
GRINNELL*      SUNNY     79  55  44 W8        30.06S
KNOXVILLE *    SUNNY     79  52  38 W8        30.06S
MARSHALLTOWN   SUNNY     79  57  46 SW8       30.04F HX  80
PELLA *        SUNNY     81  61  50 SW5       30.07F HX  81
PERRY *          N/A     81  54  39 SW6       30.04F HX  80
$$

IAZ004>006-015-016-023>025-035-036-272300-
   NORTH CENTRAL IOWA

CITY           SKY/WX    TMP DP  RH WIND       PRES   REMARKS
ALGONA *       SUNNY     82 -27   1 W7        30.02S
CLARION *      SUNNY     82 -31   1 W9        30.03S
ESTHERVILLE    SUNNY     83  48  29 SW9       30.00F HX  81
FORT DODGE *   MOSUNNY   81  57  44 SW7       30.04S HX  81
MASON CITY     SUNNY     82  53  36 W7        30.03S HX  81
FOREST CITY *  SUNNY     79  52  38 SW3       30.02S
IOWA FALLS *     N/A     81  55  41 SW8       30.05S HX  80
$$

IAZ007>011-017>019-026>030-037>042-050>054-066-272300-
   NORTHEAST IOWA

CITY           SKY/WX    TMP DP  RH WIND       PRES   REMARKS
CEDAR RAPIDS   MOSUNNY   78  57  48 W13       30.05S
CHARLES CITY * SUNNY     81  55  41 SW10      30.03S HX  80
CLINTON *      MOSUNNY   77  57  50 N10       30.08S
DECORAH *      MOSUNNY   79  55  44 W9        30.02S
DUBUQUE        MOSUNNY   74  58  57 W12       30.06R
MONTICELLO *   MOSUNNY   77  61  57 VRB5G13   30.05R
OELWEIN *      SUNNY     79  57  47 W14       30.04S HX  80
WATERLOO       SUNNY     80  56  43 W10       30.02F HX  80
$$

IAZ064-065-067-068-078-272300-
   EAST CENTRAL IOWA

CITY           SKY/WX    TMP DP  RH WIND       PRES   REMARKS
DAVENPORT      MOSUNNY   79  56  45 N6        30.06S HX  80
IOWA CITY      MOSUNNY   79  55  43 W6        30.06S
MT. PLEASANT * SUNNY     79  55  44 NW7       30.07S
MUSCATINE *    SUNNY     79  54  41 CALM      30.06S
QUAD CITIES    MOSUNNY   79  56  45 NW7       30.05R HX  80
$$

IAZ062-063-075>077-085>089-095>099-272300-
   SOUTHEAST IOWA

CITY           SKY/WX    TMP DP  RH WIND       PRES   REMARKS
BURLINGTON     SUNNY     79  58  48 NW8       30.07R HX  80
FAIRFIELD *    SUNNY     79  55  44 VRB7      30.07S
FORT MADISON * SUNNY     79  57  47 W8        30.08S HX  80
KEOKUK *       SUNNY     79  59  50 CALM      30.07S HX  80
OSKALOOSA *      N/A     81  54  39 W7        30.07S HX  80
CENTERVILLE *  SUNNY     79  79 100 W6        30.09F HX  83
OTTUMWA        SUNNY     79  57  46 W6        30.05F HX  80
WASHINGTON *   SUNNY     79  55  44 W8        30.08S
$$

ABBREVIATIONS USED IN REMARKS
   TC - TEMPERATURES IN CELSIUS
  WCI - WIND CHILL INDEX
   HX - HEAT INDEX
  VSB - VISIBILITY
$$




USA.gov is the U.S. government's official web portal to all federal, state and local government web resources and services.